#timestamp,LO_Frequency,Hit,StdDev 
1671699615.3,286047000.4,N
1671699635.1,286046998.6,N
1671699655.9,286046998.6,N
1671699675.7,286047002.2,N
1671699695.6,286047002.6,N
1671699715.4,286046999.9,N
1671699735.2,286046998.6,N
1671699755.1,286046998.1,N
1671699756.0,286046998.1,N
1671699775.8,286046998.5,N
1671699795.6,286046998.8,N
1671699815.5,286046998.9,N
1671699835.3,286047001.2,N
1671699855.2,286047001.2,N
1671699875.9,286046998.5,N
1671699895.7,286047001.2,N
1671699915.6,286046998.6,N
1671699935.4,286046998.7,N
1671699955.2,286046998.3,N
1671699975.1,286046998.7,N
1671699976.0,286046998.7,N
1671699995.8,286046998.2,N
1671700015.6,286046998.3,N
1671700035.5,286047002.5,N
1671700055.3,286047002.0,N
1671700075.2,286046998.2,N
1671700095.9,286046999.3,N
1671700115.7,286046999.0,N
1671700135.6,286046999.4,N
1671700155.4,286046995.0,Y
1671700175.2,286046996.7,P
1671700195.1,286046997.2,N
1671700196.0,286046997.2,N
1671700215.8,286046996.5,Y
1671700235.7,286047001.8,P
1671700255.5,286047001.7,N
1671700275.3,286047003.6,N
1671700295.2,286047001.6,N
1671700315.0,286047001.5,N
1671700315.9,286047001.5,N
1671700335.8,286047000.3,N
1671700355.6,286047002.6,N
1671700375.4,286047000.4,N
1671700395.3,286047004.3,N
1671700415.1,286047000.7,N
1671700435.8,286046998.5,N
1671700455.7,286046998.9,N
1671700475.5,286046998.9,N
1671700495.3,286046999.0,N
1671700515.2,286046998.3,N
1671700535.0,286047000.6,N
1671700535.9,286047000.6,N
1671700555.8,286047002.2,N
1671700575.6,286047002.3,N
1671700595.4,286047002.4,N
1671700615.3,286047004.2,N
1671700635.1,286047003.8,N
1671700655.9,286047001.7,N
1671700675.7,286046999.8,N
1671700695.5,286046999.7,N
1671700715.4,286047000.5,N
1671700735.2,286046999.9,N
1671700755.0,286047000.6,N
1671700756.0,286047000.6,N
1671700775.8,286047000.1,N
1671700795.6,286047001.7,N
1671700815.5,286047002.6,N
1671700835.3,286047004.2,N
1671700855.2,286047001.3,N
1671700875.9,286047004.2,N
1671700895.7,286047002.4,N
1671700915.6,286047000.4,N
1671700935.4,286047002.6,N
1671700955.2,286047001.8,N
1671700975.1,286047001.8,N
1671700976.0,286047001.8,N
1671700995.8,286047001.8,N
1671701015.7,286047004.4,N
1671701035.5,286047001.9,N
1671701055.3,286047004.0,N
1671701075.2,286047004.0,N
1671701095.0,286047002.2,N
1671701095.9,286047002.2,N
1671701115.8,286047003.5,N
1671701135.6,286047003.1,N
1671701155.4,286047004.1,N
1671701175.3,286047003.1,N
1671701195.1,286047003.8,N
1671701215.8,286047001.5,N
1671701235.7,286047002.5,N
1671701255.5,286047002.2,N
1671701275.4,286047002.2,N
1671701295.2,286047002.1,N
1671701315.0,286047002.7,N
1671701315.9,286047002.7,N
1671701335.8,286047002.6,N
1671701355.6,286047002.7,N
1671701375.5,286047003.6,Y
1671701395.3,286046998.4,P
1671701415.2,286046999.4,N
1671701435.9,286047001.2,N
1671701455.7,286047002.2,N
1671701475.6,286047000.6,N
1671701495.4,286046996.5,N
1671701515.2,286046996.8,N
1671701535.1,286046998.5,N
1671701536.0,286046998.5,N
1671701555.8,286046998.9,N
1671701575.7,286046999.5,N
1671701595.5,286046998.3,N
1671701615.3,286047000.4,N
1671701635.2,286047000.6,N
1671701655.0,286047001.0,N
1671701655.9,286047001.0,N
1671701675.7,286046999.0,N
1671701695.6,286047000.9,N
1671701715.4,286046999.6,N
1671701735.3,286046998.2,N
1671701755.1,286046999.0,N
1671701756.0,286046999.0,N
1671701775.8,286047000.8,N
1671701795.7,286047000.5,N
1671701815.5,286047000.8,N
1671701835.3,286047002.5,N
1671701855.2,286047000.8,N
1671701875.0,286047000.8,N
1671701875.9,286047000.8,N
1671701895.8,286047000.7,N
1671701915.6,286047002.3,N
1671701935.4,286047000.2,N
1671701955.3,286046998.6,N
1671701975.1,286046998.2,N
1671702025.9,286046998.1,E
1671702035.4,286047001.2,N
1671702055.2,286047002.0,P
1671702075.0,286047004.0,P
1671702075.9,286047004.0,Y
1671702095.8,286047000.6,P
1671702115.6,286046998.8,N
1671702135.4,286046998.3,N
1671702155.3,286046996.9,N
1671702175.1,286046999.4,N
1671702195.9,286046998.8,N
1671702215.7,286046998.9,N
1671702235.5,286046997.0,N
1671702255.4,286047000.8,N
1671702275.2,286047001.0,N
1671702295.0,286047001.2,N
1671702295.9,286047001.2,N
1671702315.8,286047001.0,N
1671702335.6,286046998.4,N
1671702355.5,286046998.2,N
1671702375.3,286046998.2,N
1671702395.1,286046998.6,N
1671702415.9,286046999.4,N
1671702465.8,286047000.9,E
1671702475.7,286047000.5,N
1671702495.5,286047000.5,P
1671702515.3,286047002.8,P
1671702535.2,286046998.5,N
1671702555.0,286046999.5,N
1671702555.9,286046999.5,N
1671702575.8,286046996.7,N
1671702595.6,286046999.1,N
1671702615.4,286046996.9,N
1671702635.3,286046997.2,N
1671702655.1,286046996.7,N
1671702675.9,286046999.4,N
1671702695.7,286046999.6,N
1671702715.5,286046996.6,N
1671702735.4,286046998.4,N
1671702755.2,286046996.7,N
1671702775.1,286046996.6,N
1671702776.0,286046996.6,N
1671702795.8,286046999.9,N
1671702815.6,286046998.5,N
1671702835.5,286046999.6,N
1671702855.3,286046998.0,N
1671702875.1,286046995.3,N
1671702895.9,286046995.4,N
1671702915.7,286046997.6,N
1671702935.6,286046997.4,N
1671702955.4,286046997.8,N
1671702975.2,286046996.8,N
1671702995.1,286046996.5,N
1671702996.0,286046996.5,N
1671703015.8,286046997.2,N
1671703035.6,286046999.1,N
1671703055.5,286046997.0,N
1671703075.3,286046996.8,N
1671703095.2,286046997.6,N
1671703115.9,286046996.8,N
1671703135.7,286046996.6,N
1671703155.6,286046998.6,N
1671703175.4,286046999.2,N
1671703195.2,286046997.4,N
